Regional Weather Roundup
Issued by NWS

Home | Current Version | Previous Version | Text Only | Print | Product List | Glossary Off
Versions: 1 2 3 4 5 6 7 8 9 10 11 12 13 14 15 16 17 18 19 20 21 22 23 24 25 26 27 28 29 30 31 32 33 34 35 36 37 38 39 40 41 42 43 44 45 46 47 48 49 50

000
ASUS45 KABQ 180310
RWRNM
WEATHER ROUNDUP FOR NEW MEXICO
NATIONAL WEATHER SERVICE ALBUQUERQUE NM
900 PM MDT FRI APR 17 2015

NOTE: "FAIR" MEANS FEW OR NO CLOUDS BELOW 12,000 FEET AGL WITH NO
       SIGNIFICANT WEATHER OR OBSTRUCTIONS TO VISION.

      THIS PRODUCT IS RELEASED AS TWO VERSIONS.  ONE VERSION NEAR
      THE TOP OF THE HOUR CONTAINING PRELIMINARY DATA FROM ALBUQUERQUE
      AND OTHER STATIONS.  A FINAL VERSION WITH ADDITIONAL DATA IS
      ISSUED ABOUT 10 MINUTES AFTER THE HOUR.

NMZ501-503-504-510>518-180400-
NORTHWEST PLATEAU/NORTHCENTRAL MOUNTAINS

CITY           SKY/WX    TMP DP  RH WIND       PRES   REMARKS
FARMINGTON     CLOUDY    42  27  55 W8        30.03R
LOS ALAMOS     MOCLDY    35  21  57 NE5       30.07R WCI  30
SANTA FE       CLOUDY    41  15  35 NW6       30.04R
ANGEL FIRE     CLOUDY    31  17  56 CALM      30.07R

$$
NMZ402-403-502-505>509-180400-
WESTCENTRAL MOUNTAINS/SOUTHWEST MOUNTAINS

CITY           SKY/WX    TMP DP  RH WIND       PRES   REMARKS
GALLUP         CLOUDY    46  20  35 W10       30.05R
GRANTS         MOCLDY    35  21  56 SW5       30.06R WCI  31
SILVER CITY      N/A     50   5  16 W9        30.07R

$$
NMZ407-409-411-412-180400-
SOUTHERN DESERTS

CITY           SKY/WX    TMP DP  RH WIND       PRES   REMARKS
LORDSBURG      FAIR      52   9  17 W6        30.03R
DEMING         CLEAR     57   6  13 NW9       30.02R
LAS CRUCES     CLEAR     58   5  12 W14       30.01R
HOLLOMAN AFB   PTCLDY    56  10  16 SW8       29.97R
ALAMOGORDO     PTCLDY    52  14  22 SE8       29.99R
T OR C         PTCLDY    58  17  20 NW12      30.00R

$$
NMZ519>523-180400-
CENTRAL VALLEYS/CENTRAL HIGHLANDS

CITY           SKY/WX    TMP DP  RH WIND       PRES   REMARKS
ALBUQUERQUE    CLOUDY    49  21  33 N8        30.05R
DOUBLE EAGLE   MOCLDY    45  21  39 N9        30.05R
MORIARTY ARPT  MOCLDY    43  16  33 NW8       30.07R
CLINES CORNERS MOCLDY    38  16  40 NW10      30.04R WCI  31
BELEN          CLOUDY    47  21  35 N9        30.05R
SOCORRO        FAIR      54  13  19 NW9       30.02R

$$
NMZ524>526-539-540-180400-
SOUTHCENTRAL MOUNTAINS

CITY           SKY/WX    TMP DP  RH WIND       PRES   REMARKS
RUIDOSO        CLEAR     41  10  28 SW9       30.07R

$$
NMZ527>531-180400-
NORTHEAST HIGHLANDS/NORTHEAST PLAINS

CITY           SKY/WX    TMP DP  RH WIND       PRES   REMARKS
LAS VEGAS      PTCLDY    32  18  56 NW6       30.04R WCI  26
RATON          CLOUDY    43  17  35 W5        29.98R
CLAYTON        CLEAR     47  17  30 W9        29.97R

$$
NMZ532>537-180400-
EASTCENTRAL PLAINS

CITY           SKY/WX    TMP DP  RH WIND       PRES   REMARKS
TUCUMCARI      CLEAR     52  12  20 NW10      29.96R
CANNON AFB     NOT AVBL
CLOVIS AIRPORT CLEAR     48  19  32 W8        29.97R

$$
NMZ028-029-538-180400-
SOUTHEAST PLAINS

CITY           SKY/WX    TMP DP  RH WIND       PRES   REMARKS
ROSWELL        CLEAR     55  24  30 W3        29.96R
ARTESIA        CLEAR     57  18  21 SW12      29.97R
CARLSBAD       CLEAR     59  15  18 W3        29.95R
HOBBS          CLEAR     54  34  47 W7        29.98R


$$


USA.gov is the U.S. government's official web portal to all federal, state and local government web resources and services.